SCP
0 0 0 0 0 0 0 0 0 0 0 0 0 0 0 0 0 0 0 0 0 0 0 0 0 0 0 0 0 0 0 0 0 0 0 0 0 0 0 0 0 0 0
0 0 0 0 0 0 0 0 0 0 0 0 0 0 0 0 0 0 0 0 0 0 0 0 0 0 0 0 0 0 0 0 0 0 0 0 0 0 0 0 0 0 0
0 0 0 0 0 0 0 0 0 0 0 0 0 0 0 0 0 0 0 0 0 0 0 0 0 0 0 0 0 0 0 0 0 0 0 0 0 0 0 0 0 0 0
0 0 0 0 0 0 0 0 0 0 0 0 0 0 0 0 0 0 0 0 0 0 0 0 0 0 0 0 0 0 0 0 0 0 0 0 0 0 0 0 0 0 0
0 0 0 0 0 0 0 0 0 0 0 0 0 0 0 0 0 0 0 0 0 0 0 0 0 0 0 0 0 0 0 0 0 0 0 0 0 0 0 0 0 0 0
0 0 0 0 0 0 0 0 0 0 0 0 0 0 0 0 0 0 0 0 0 0 0 0 0 0 0 0 0 0 0 0 0 0 0 0 0 0 0 0 0 0 0
0 0 0 0 0 0 0 0 0 0 0 0 0 0 0 0 0 0 0 0 0 0 0 0 0 0 0 0 0 0 0 0 0 0 0 0 0 0 0 0 0 0 0
0 0 0 0 0 0 0 0 0 0 0 0 0 0 0 0 0 0 0 0 0 0 0 0 0 0 0 0 0 0 0 0 0 0 0 0 0 0 0 0 0 0 0
0 0 0 0 0 0 0 0 0 0 0 0 0 0 0 0 0 0 0 0 0 0 0 0 0 0 0 0 0 0 0 0 0 0 0 0 0 0 0 0 0 0 0
0 0 0 0 0 0 0 0 0 0 0 0 0 0 0 0 0 0 0 0 0 0 0 0 0 0 0 0 0 0 0 0 0 0 0 0 0 0 0 0 0 0 0
0 0 0 0 0 0 0 0 0 0 0 0 0 0 0 0 0 0 0 0 0 0 0 0 0 0 0 0 0 0 0 0 0 0 0 0 0 0 0 0 0 0 0
0 0 0 0 0 0 0 0 0 0 0 0 0 0 0 0 0 0 0 0 0 0 0 0 0 0 0 0 0 0 0 0 0 0 0 0 0 0 0 0 0 0 0
0 0 0 0 0 0 0 0 0 0 0 0 0 0 0 0 0 0 0 0 0 0 0 0 0 0 0 0 0 0 0 0 0 0 0 0 0 0 0 0 0 0 0
0 0 0 0 0 0 0 0 0 0 0 0 0 0 0 0 0 0 0 0 0 0 0 0 0 0 0 0 0 0 0 0 0 0 0 0 0 0 0 0 0 0 0
0 0 0 0 0 0 0 0 0 0 0 0 0 0 0 0 0 0 0 0 0 0 0 0 0 0 0 0 0 0 0 0 0 0 0 0 0 0 0 0 0 0 0
0 0 0 0 0 0 0 0 0 0 0 0 0 0 0 0 0 0 0 0 0 0 0 0 0 0 0 0 0 0 0 0 0 0 0 0 0 0 0 0 0 0 0
0 0 0 0 0 0 0 0 0 0 0 0 0 0 0 0 0 0 0 0 0 0 0 0 0 0 0 0 0 0 0 0 0 0 0 0 0 0 0 0 0 0 0
0 0 0 0 0 0 0 0 0 0 0 0 0 0 0 0 0 0 0 0 0 0 0 0 0 0 0 0 0 0 0 0 0 0 0 0 0 0 0 0 0 0 0
0 0 0 0 0 0 0 0 0 0 0 0 0 0 0 0 0 0 0 0 0 0 0 0 0 0 0 0 0 0 0 0 0 0 0 0 0 0 0 0 0 0 0
0 0 0 0 0 0 0 0 0 0 0 0 0 0 0 0 0 0 0 0 0 0 0 0 0 0 0 0 0 0 0 0 0 0 0 0 0 0 0 0 0 0 0
0 0 0 0 0 0 0 0 0 0 0 0 0 0 0 0 0 0 0 0 0 0 0 0 0 0 0 0 0 0 0 0 0 0 0 0 0 0 0 0 0 0 0
0 0 0 0 0 0 0 0 0 0 0 0 0 0 0 0 0 0 0 0 0 0 0 0 0 0 0 0 0 0 0 0 0 0 0 0 0 0 0 0 0 0 0
0 0 0 0 0 0 0 0 0 0 0 0 0 0 0 0 0 0 0 0 0 0 0 0 0 0 0 0 0 0 0 0 0 0 0 0 0 0 0 0 0 0 0
0 0 0 0 0 0 0 0 0 0 0 0 0 0 0 0 0 0 0 0 0 0 0 0 0 0 0 0 0 0 0 0 0 0 0 0 0 0 0 0 0 0 0
0 0 0 0 0 0 0 0 0 0 0 0 -0 0 0 0 0 0 0 0 0 0 0 0 0 0 0 0 0 0 0 0 0 0 0 0 0 0 0 0 0 0 0
0 0 0 0 0 0 0 0 0 0 0 0 -0 0 0 0 0 0 0 0 0 0 0 0 0 0 0 0 0 0 0 0 0 0 0 0 0 0 0 0 0 0 0
Wind_Speed
5 5 3 3 4 3 3 3 3 3 3 3 3 3 3 3 4 3 3 8 9 9 9 8 8 7 7 7 6 5 5 5 5 4 4 4 3 3 2 1 1 1 1
6 6 5 4 4 4 4 4 4 3 3 3 3 3 3 3 4 4 4 5 9 10 10 10 9 9 8 8 8 7 7 7 7 7 6 6 5 5 5 4 3 2 2
7 6 5 5 4 4 4 3 3 2 2 2 3 3 2 3 3 4 4 4 5 9 11 12 11 10 9 9 9 8 8 9 9 9 9 8 8 7 7 7 6 5 5
8 6 5 5 5 4 3 3 3 2 2 2 2 2 2 2 4 4 4 4 4 4 7 11 11 10 10 10 10 10 9 9 9 10 11 11 11 10 10 9 8 8 7
8 6 5 5 5 4 3 3 2 2 2 2 2 2 2 3 4 4 4 5 5 5 4 6 9 9 9 10 11 11 11 10 10 11 11 12 13 13 12 11 11 10 9
7 6 4 5 5 4 3 3 3 2 2 2 2 2 3 4 3 4 5 4 4 5 4 4 4 5 8 9 10 11 11 11 10 11 11 12 12 13 13 13 13 12 12
7 6 5 5 4 4 4 4 3 3 2 1 0 2 3 4 4 4 3 3 3 3 3 4 3 2 2 5 7 9 10 10 10 10 10 10 11 11 12 13 13 13 13
7 6 6 5 5 4 4 4 3 2 2 2 2 1 3 4 3 2 2 2 2 1 2 2 2 2 2 1 2 4 6 8 9 10 9 9 10 11 12 12 12 13 12
6 6 6 5 5 5 5 5 5 5 3 3 3 3 3 4 3 2 1 1 1 1 1 0 1 1 1 1 1 2 4 6 8 9 10 10 10 11 12 12 12 12 11
5 5 6 5 5 4 4 4 4 3 4 3 3 3 3 3 2 2 2 1 1 0 1 0 0 0 1 1 1 1 3 4 6 8 10 10 10 10 10 10 10 9 9
5 5 5 5 5 4 4 4 4 4 4 4 3 2 3 3 4 3 4 2 1 1 0 1 1 0 0 0 0 1 2 3 5 7 8 9 9 10 9 8 8 7 7
3 4 4 4 4 4 4 4 4 4 4 4 3 3 3 3 3 4 5 3 3 2 1 0 0 0 0 0 1 2 2 3 4 6 7 7 8 9 9 8 7 6 4
3 4 4 3 3 3 3 3 3 4 4 4 4 3 3 3 2 2 3 3 3 2 1 0 0 1 0 0 1 2 2 3 4 5 6 7 7 8 8 7 6 5 2
3 3 4 3 3 3 3 3 3 3 3 3 3 3 3 3 2 2 3 3 3 2 2 2 0 0 0 1 1 3 1 3 3 4 5 6 6 7 6 6 5 4 2
3 4 4 3 3 2 2 2 2 2 2 2 2 3 2 2 2 2 2 3 3 4 3 3 2 0 0 1 2 1 1 2 3 3 3 4 5 5 5 5 5 5 4
3 4 3 3 2 2 2 2 1 1 2 1 1 1 1 1 1 1 2 2 3 3 3 1 1 1 1 1 2 2 1 3 3 3 3 3 4 4 4 4 4 4 4
4 4 4 3 3 2 2 2 1 1 2 1 1 1 1 0 0 1 1 1 2 2 3 1 1 1 1 1 1 1 1 2 2 3 3 3 3 3 3 3 3 3 3
4 4 4 3 3 2 2 2 2 1 2 2 1 1 1 0 0 0 0 1 1 1 2 2 1 1 1 1 1 0 1 1 1 2 2 2 2 3 3 3 2 3 3
4 4 4 3 2 2 2 2 2 2 2 1 1 1 1 1 0 0 0 1 1 1 1 1 1 1 1 1 1 1 1 1 2 2 2 3 3 3 3 2 2 2 3
4 3 3 3 3 2 2 2 2 2 2 1 1 1 1 1 1 1 0 0 0 0 0 1 1 1 1 1 1 0 1 1 1 2 3 3 4 4 3 2 2 2 3
4 4 3 3 2 2 2 2 2 2 2 2 2 1 1 1 2 1 1 1 0 0 1 1 1 1 1 1 1 1 1 1 1 1 1 2 2 2 2 3 3 3 3
3 3 3 3 2 1 3 4 3 3 3 3 2 1 1 1 2 2 2 2 2 2 2 1 1 2 2 2 1 1 1 0 2 1 1 2 1 1 2 2 4 4 3
3 3 3 3 2 1 3 3 4 3 2 2 2 2 1 1 2 2 3 4 4 3 1 3 3 3 3 3 3 2 2 2 2 1 0 2 1 2 2 3 6 4 2
3 3 3 3 2 2 3 4 5 3 2 2 2 2 2 1 2 2 2 2 2 2 1 1 2 2 2 3 3 3 3 1 0 1 1 1 1 2 2 3 5 2 2
3 3 3 3 3 3 4 5 5 3 2 2 2 2 3 2 4 4 3 2 1 1 2 2 2 2 2 3 4 3 2 1 0 1 0 1 1 2 2 2 3 4 3
3 3 3 3 3 3 5 6 6 3 3 2 1 2 4 4 5 5 3 3 2 1 0 1 3 3 3 2 2 2 3 2 1 2 1 1 0 1 3 2 2 2 2
Wind_Direction
167 166 170 173 177 176 179 185 198 217 238 246 236 217 210 203 201 197 208 209 210 212 213 213 213 215 218 219 218 216 216 213 213 212 212 214 211 206 198 186 160 96 66
171 172 175 181 187 189 190 191 201 214 222 218 227 219 212 209 212 206 212 217 220 221 222 224 225 226 228 229 229 226 224 225 226 225 224 224 226 227 226 222 224 227 235
173 175 176 184 193 193 193 194 206 206 216 215 224 226 219 221 222 223 220 218 224 228 228 231 231 231 233 236 238 237 233 231 233 232 231 230 231 232 234 230 231 234 238
173 172 176 187 189 184 183 187 190 189 206 207 219 235 237 239 238 233 226 221 219 225 231 231 233 235 236 240 245 246 243 239 238 237 237 235 234 235 237 235 234 237 239
172 170 176 183 177 175 180 185 184 180 197 217 231 243 247 243 244 240 235 228 222 219 219 228 230 233 238 245 252 257 259 254 246 243 241 240 238 237 238 239 239 239 240
175 172 174 179 172 171 183 186 189 188 193 206 237 257 256 252 250 244 240 234 224 221 217 217 222 233 236 245 254 262 268 267 260 254 250 249 247 244 242 241 242 242 241
177 176 176 177 175 180 188 185 179 194 208 172 185 299 293 270 258 254 245 237 234 225 211 214 211 212 229 239 252 264 273 275 275 269 260 257 255 251 248 245 244 244 242
177 176 175 180 179 176 182 185 175 176 200 172 167 220 305 317 303 272 252 228 229 213 206 206 195 196 200 206 246 261 276 283 286 284 276 268 264 260 256 253 250 247 244
175 171 175 177 183 182 190 192 184 183 201 210 188 180 205 249 295 310 308 264 228 206 228 212 196 193 190 197 242 274 278 284 286 291 291 285 279 273 267 261 256 251 245
175 175 175 179 185 189 193 196 193 193 189 210 219 219 212 200 224 288 308 326 343 264 258 234 207 236 204 207 231 274 287 285 283 289 292 295 294 287 280 274 269 263 249
179 178 176 178 184 189 195 192 188 197 199 205 209 213 228 230 223 235 264 270 297 272 226 214 215 232 240 229 268 313 303 300 294 293 294 299 304 308 302 292 288 281 260
175 179 178 183 189 191 195 196 195 199 207 210 213 211 211 218 218 221 243 244 243 235 224 234 241 244 245 18 18 31 10 348 327 317 314 317 321 319 319 308 303 298 275
182 188 177 181 186 190 188 186 190 201 205 209 214 220 224 230 217 214 237 250 243 232 212 218 278 272 104 78 46 44 22 14 358 337 331 332 337 339 336 331 319 315 293
175 168 160 163 172 179 184 185 191 202 197 207 216 217 224 230 221 216 221 226 250 241 219 217 115 27 34 49 67 69 21 23 14 0 353 349 356 1 3 4 0 1 3
145 140 141 146 155 165 174 170 187 196 185 201 212 213 224 229 224 230 229 219 231 250 244 196 187 127 90 80 70 58 12 16 17 6 8 13 10 6 12 19 25 28 29
131 132 131 134 135 127 121 136 165 169 174 200 198 184 214 234 233 238 233 236 231 239 248 175 170 150 131 104 88 64 21 36 23 23 28 21 17 18 19 16 16 13 12
129 132 137 133 133 130 128 133 148 148 163 177 164 165 215 214 226 265 249 232 238 234 243 198 117 128 130 120 76 46 43 31 3 13 17 16 21 15 11 6 8 10 11
126 126 122 119 124 132 138 147 155 148 163 177 174 159 213 170 254 299 276 249 246 240 221 222 171 149 135 144 121 92 30 19 345 348 358 3 357 347 341 340 358 7 7
123 116 116 122 133 139 140 143 146 145 147 155 159 162 180 166 232 314 279 263 267 265 218 186 163 115 101 106 93 28 10 349 331 343 347 349 339 332 329 332 344 347 348
126 124 123 132 137 131 128 127 126 132 128 118 115 128 135 156 190 195 219 279 279 239 127 141 139 128 125 107 108 137 295 318 322 352 355 346 337 342 337 325 328 336 335
136 135 129 126 127 134 145 142 143 145 141 129 108 105 113 138 166 165 157 188 163 168 155 155 156 139 158 157 188 184 209 305 304 346 335 332 340 342 336 328 320 305 298
134 133 139 145 149 157 164 164 155 151 152 154 154 142 124 102 97 85 91 105 135 166 185 176 187 196 203 194 166 159 142 104 279 300 352 306 341 305 302 296 299 295 287
141 139 143 144 149 171 178 175 164 144 152 166 172 171 169 137 90 73 66 53 41 48 142 177 191 208 197 192 170 166 174 189 228 251 23 285 322 290 293 309 308 288 272
155 160 163 159 158 191 190 181 163 139 145 168 178 178 174 182 176 145 117 80 43 20 27 107 180 203 205 188 177 172 169 153 293 294 150 253 303 291 307 317 317 303 302
164 168 167 168 177 195 196 188 162 141 158 179 188 186 182 195 206 181 149 140 88 352 35 82 130 154 161 160 148 122 125 111 269 267 155 199 293 312 308 305 318 335 334
170 168 173 179 187 197 202 199 182 161 174 187 197 212 209 207 211 196 172 171 193 226 210 30 33 34 36 48 120 142 154 151 177 244 231 151 287 353 317 301 303 317 326